Terug naar catalogus

TITAN 3C TRANSTAGE DEB

LostHEO
NORAD 5986·DEBRIS·🇺🇸 United States

Gelanceerd Dec 21, 1965 vanaf Cape Canaveral Space Force Station

Loading…

Volgende Passages (komende 24 uur)

TLE

VerouderdSource: Space-Track

Epoch: Jun 27, 2026, 17:58 UTC

1 05986U 65108Q   26178.74882961  .00003289  00000-0  36705-2 0  9992
2 05986  26.8640  13.0493 6157697 251.8342  35.1885  3.71299526297329

Volg TITAN 3C TRANSTAGE DEB in realtime met AllMySat

Download on the App Store